Cartersville, GA

11:27 AM EST on November 18, 2019 (GMT -0500)
Cartersville

Weather History for KVPC - September, 2019

Change the Weather History Date:

Saturday, September 14, 2019

  Actual Average Record
Temperature  
Mean Temperature 82 °F 72 °F  
Max Temperature 91 °F 84 °F 95 °F (2016)
Min Temperature 72 °F 61 °F 43 °F (2015)
Degree Days  
Heating Degree Days 0 0  
Month to date heating degree days 0 0  
Since 1 July heating degree days 0 0  
Cooling Degree Days 16 7  
Month to date cooling degree days 231 131  
Year to date cooling degree days 1803 1396  
Growing Degree Days 32 (Base 50)    
Moisture  
Dew Point 70 °F    
Average Humidity 76    
Maximum Humidity 90    
Minimum Humidity 50    
Precipitation  
Precipitation 0.01 in 0.14 in 3.65 in (1973)
Month to date precipitation 0.01 1.52  
Year to date precipitation 31.55 36.11  
Sea Level Pressure  
Sea Level Pressure 30.19 in    
Wind  
Wind Speed 3 mph ()    
Max Wind Speed 12 mph    
Max Gust Speed 17 mph    
Visibility 9.8 miles    
Events Thunderstorm    
T = Trace of Precipitation, MM = Missing Value Source: Averaged Metar Reports

Daily Weather History Graph

Daily Weather History Graph

Search for Another Location

Airport or City:

Astronomy

Sep. 14, 2019 Rise Set
Actual Time 7:21 AM EDT 7:47 PM EDT
Civil Twilight 6:56 AM EDT 8:12 PM EDT
Nautical Twilight 6:27 AM EDT 8:42 PM EDT
Astronomical Twilight 5:57 AM EDT 9:12 PM EDT
Moon 8:27 PM EDT (9/14) 7:36 AM EDT (9/14)
Length of Visible Light 13h 16m
Length of Day
12h 25m
Full, 100% of the Moon is Illuminated
Sep 14
Full
Sep 21
Last Quarter
Sep 28
New
Oct 5
First Quarter
Oct 13
Full

Hourly Weather History & Observations

Time (EDT) Temp. Heat Index Dew Point Humidity Pressure Visibility Wind Dir Wind Speed Gust Speed Precip Events Conditions
12:46 AM 73.9 °F - 69.1 °F 85% 30.23 in 10.0 mi Variable 3.5 mph - 0.00 in   Scattered Clouds
12:53 AM 73.9 °F - 69.1 °F 85% 30.18 in 10.0 mi Calm Calm - 0.00 in   Scattered Clouds
1:53 AM 73.0 °F - 70.0 °F 90% 30.17 in 10.0 mi NE 3.5 mph - 0.01 in   Clear
2:53 AM 73.9 °F - 70.0 °F 87% 30.18 in 10.0 mi Variable 3.5 mph - N/A   Clear
3:46 AM 73.0 °F - 70.0 °F 90% 30.21 in 10.0 mi Calm Calm - N/A   Mostly Cloudy
3:53 AM 73.0 °F - 70.0 °F 90% 30.17 in 10.0 mi Calm Calm - N/A   Mostly Cloudy
4:12 AM 73.0 °F - 70.0 °F 90% 30.21 in 10.0 mi Calm Calm - N/A   Overcast
4:53 AM 73.9 °F - 70.0 °F 87% 30.17 in 10.0 mi Calm Calm - N/A   Overcast
5:00 AM 73.0 °F - 70.0 °F 90% 30.21 in 10.0 mi East 3.5 mph - N/A   Overcast
5:41 AM 73.0 °F - 70.0 °F 90% 30.22 in 10.0 mi East 3.5 mph - N/A   Scattered Clouds
5:53 AM 73.0 °F - 70.0 °F 90% 30.17 in 10.0 mi Calm Calm - N/A   Partly Cloudy
6:49 AM 73.4 °F - 69.8 °F 88% 30.24 in 9.0 mi Calm Calm - N/A   Mostly Cloudy
6:53 AM 73.0 °F - 70.0 °F 90% 30.20 in 9.0 mi Calm Calm - N/A   Mostly Cloudy
7:30 AM 73.0 °F - 70.0 °F 90% 30.24 in 8.0 mi Calm Calm - N/A   Mostly Cloudy
7:53 AM 73.0 °F - 70.0 °F 90% 30.21 in 7.0 mi Calm Calm - N/A   Overcast
8:53 AM 75.0 °F - 71.1 °F 87% 30.22 in 9.0 mi East 3.5 mph - N/A   Overcast
9:53 AM 77.0 °F - 71.1 °F 82% 30.24 in 10.0 mi ESE 6.9 mph - N/A   Overcast
10:13 AM 78.1 °F - 70.0 °F 76% 30.28 in 10.0 mi Variable 6.9 mph - N/A   Overcast
10:53 AM 80.1 °F 83.2 °F 70.0 °F 71% 30.24 in 10.0 mi Variable 6.9 mph - N/A   Mostly Cloudy
11:44 AM 82.9 °F 87.5 °F 71.1 °F 67% 30.27 in 10.0 mi Variable 5.8 mph - N/A   Scattered Clouds
11:53 AM 82.0 °F 85.9 °F 70.0 °F 67% 30.23 in 10.0 mi ESE 8.1 mph - N/A   Mostly Cloudy
12:53 PM 82.9 °F 87.5 °F 71.1 °F 67% 30.22 in 10.0 mi ENE 5.8 mph - N/A   Mostly Cloudy
1:01 PM 84.0 °F 88.4 °F 70.0 °F 63% 30.26 in 10.0 mi SE 6.9 mph - N/A   Mostly Cloudy
1:53 PM 84.9 °F 89.4 °F 70.0 °F 61% 30.21 in 10.0 mi SE 6.9 mph - N/A   Partly Cloudy
3:53 PM 89.1 °F 93.7 °F 69.1 °F 52% 30.14 in 10.0 mi Variable 6.9 mph - N/A   Scattered Clouds
4:53 PM 89.1 °F 92.9 °F 68.0 °F 50% 30.13 in 10.0 mi Variable 4.6 mph - N/A   Scattered Clouds
5:53 PM 88.0 °F 92.1 °F 69.1 °F 53% 30.12 in 10.0 mi East 4.6 mph - N/A   Partly Cloudy
6:27 PM 88.0 °F 92.1 °F 69.1 °F 53% 30.16 in 10.0 mi Variable 4.6 mph - N/A Thunderstorm Clear
6:53 PM 86.0 °F 90.1 °F 69.1 °F 57% 30.13 in 10.0 mi NNE 6.9 mph - N/A   Partly Cloudy
7:53 PM 80.1 °F 82.3 °F 66.9 °F 64% 30.14 in 10.0 mi East 3.5 mph - N/A   Clear
8:53 PM 78.1 °F - 66.9 °F 68% 30.15 in 10.0 mi Variable 4.6 mph - N/A   Clear
9:53 PM 77.0 °F - 68.0 °F 74% 30.16 in 10.0 mi Variable 4.6 mph - N/A   Clear
10:53 PM 77.0 °F - 68.0 °F 74% 30.15 in 10.0 mi ENE 3.5 mph - N/A   Clear
11:53 PM 75.0 °F - 68.0 °F 79% 30.16 in 10.0 mi East 4.6 mph - N/A   Clear